AAC-AIS-SAT3

导读 | 豆包AI

AAC-AIS-SAT3是一颗由英国(GB)于2023年11月11日08:00发射的卫星。该卫星属于自动识别系统(AIS)卫星,主要用于船舶监测与跟踪,通过接收全球船舶AIS信号,实现对海上船舶航行位置、航速等信息的实时监控,助力海事管理、航行安全保障和海洋交通管控,为全球海事领域提供空间感知支持。

基本信息
目录编号:
58997
目录名称:
AAC-AIS-SAT3
国际标识:
2023-174DJ
轨道中心:
EARTH
卫星名称:
AAC-AIS-SAT3
卫星全名:
--
卫星状态:
在轨 (已飞行844 天)
发射日期:
2023-11-11 UTC
国别 :
英国 (GB)
星等 :
--
轨道信息
数据来源 国际轨道数据
星历时间: 2026-03-04T20:27:22+0800
5小时前
查看轨道信息
半长轴: 6994.747km
偏心率: 0.0005167
轨道倾角: 97.638°
近地点辐角 311.407°
升交点赤经 116.674°
平近点角 48.670°
近地点: 612.995km
远地点: 620.225km
周期: 97.033分钟
每日圈数: 14.840373
详细信息
使用方式:
暂无
2D轨道图
3D轨道图
轨道高度分析图
轨道倾角分析图
轨道综合分析图
查看轨道综合分析图